START_TIME,STEP,MOV.,P11,t_acc.,P23,t_acc.,P27,t_acc.,A4,t_acc.
1979-08-03 06:00:21.860 ,0,1,3.,4.8,0.,4.8,1.,4.8,0.,4.8
1979-08-03 06:00:26.660 ,0,1,,0,,0,,0,,0
1979-08-03 06:00:31.460 ,0,1,3.,4.8,0.,4.8,0.,4.8,0.,4.8
1979-08-03 06:00:36.260 ,0,1,2.,4.8,0.,4.8,0.,4.8,0.,4.8
1979-08-03 06:00:41.060 ,0,1,,0,,0,,0,,0
1979-08-03 06:00:45.860 ,3,1,2.,4.8,0.,4.8,0.,4.8,0.,4.8
1979-08-03 06:00:50.660 ,3,1,0.,4.8,0.,4.8,0.,4.8,0.,4.8
1979-08-03 06:00:55.460 ,3,1,0.,4.8,0.,4.8,0.,4.8,0.,4.8
1979-08-03 06:01:00.260 ,3,1,3.,4.8,0.,4.8,0.,4.8,0.,4.8
1979-08-03 06:01:05.060 ,3,1,,0,,0,,0,,0
1979-08-03 06:01:09.910 ,7,1,2.,4.8,0.,4.8,0.,4.8,0.,4.8
1979-08-03 06:01:14.710 ,7,1,0.,4.8,1.,4.8,1.,4.8,0.,4.8
1979-08-03 06:01:19.510 ,7,1,1.,4.8,0.,4.8,0.,4.8,0.,4.8
1979-08-03 06:01:24.310 ,7,1,2.,4.8,0.,4.8,0.,4.8,0.,4.8
1979-08-03 06:01:29.110 ,7,1,0.,4.8,0.,4.8,0.,4.8,0.,4.8
1979-08-03 06:01:33.910 ,3,1,2.,4.8,0.,4.8,0.,4.8,0.,4.8
1979-08-03 06:01:38.710 ,3,1,2.,4.8,0.,4.8,0.,4.8,0.,4.8
1979-08-03 06:01:43.510 ,3,1,0.,4.8,0.,4.8,0.,4.8,0.,4.8
1979-08-03 06:01:48.310 ,3,1,1.,4.8,0.,4.8,0.,4.8,0.,4.8
1979-08-03 06:01:53.110 ,3,1,0.,4.8,0.,4.8,0.,4.8,0.,4.8
1979-08-03 06:01:57.910 ,0,1,1.,4.8,0.,4.8,0.,4.8,0.,4.8
1979-08-03 06:02:02.710 ,0,1,1.,4.8,0.,4.8,0.,4.8,0.,4.8
1979-08-03 06:02:07.510 ,0,1,1.,4.8,0.,4.8,0.,4.8,0.,4.8
1979-08-03 06:02:12.310 ,0,1,1.,4.8,0.,4.8,0.,4.8,0.,4.8
1979-08-03 06:02:17.110 ,0,1,0.,4.8,0.,4.8,0.,4.8,0.,4.8
1979-08-03 06:02:21.910 ,4,1,2.,4.8,0.,4.8,1.,4.8,0.,4.8
1979-08-03 06:02:26.710 ,4,1,1.,4.8,0.,4.8,0.,4.8,0.,4.8
1979-08-03 06:02:31.510 ,4,1,1.,4.8,0.,4.8,0.,4.8,0.,4.8
1979-08-03 06:02:36.310 ,4,1,1.,4.8,0.,4.8,0.,4.8,0.,4.8
1979-08-03 06:02:41.110 ,4,1,1.,4.8,0.,4.8,0.,4.8,0.,4.8
1979-08-03 06:02:45.910 ,7,1,1.,4.8,0.,4.8,1.,4.8,0.,4.8
1979-08-03 06:02:50.710 ,7,1,2.,4.8,0.,4.8,0.,4.8,0.,4.8
1979-08-03 06:02:55.510 ,7,1,1.,4.8,0.,4.8,0.,4.8,0.,4.8
1979-08-03 06:03:00.310 ,7,1,0.,4.8,0.,4.8,0.,4.8,0.,4.8
1979-08-03 06:03:05.110 ,7,1,2.,4.8,0.,4.8,0.,4.8,0.,4.8
1979-08-03 06:03:09.910 ,3,1,2.,4.8,0.,4.8,0.,4.8,0.,4.8
1979-08-03 06:03:14.710 ,3,1,1.,4.8,0.,4.8,0.,4.8,0.,4.8
1979-08-03 06:03:19.510 ,3,1,1.,4.8,0.,4.8,0.,4.8,0.,4.8
1979-08-03 06:03:24.310 ,3,1,4.,4.8,0.,4.8,0.,4.8,0.,4.8
1979-08-03 06:03:29.110 ,3,1,3.,4.8,0.,4.8,0.,4.8,0.,4.8
1979-08-03 06:03:33.910 ,0,1,2.,4.8,0.,4.8,0.,4.8,0.,4.8
1979-08-03 06:03:38.710 ,0,1,0.,4.8,0.,4.8,0.,4.8,0.,4.8
1979-08-03 06:03:43.510 ,0,1,3.,4.8,0.,4.8,1.,4.8,0.,4.8
1979-08-03 06:03:48.310 ,0,1,2.,4.8,0.,4.8,0.,4.8,0.,4.8
1979-08-03 06:03:53.110 ,0,1,3.,4.8,0.,4.8,0.,4.8,0.,4.8
1979-08-03 06:03:57.910 ,4,1,1.,4.8,0.,4.8,0.,4.8,0.,4.8
1979-08-03 06:04:02.710 ,4,1,0.,4.8,0.,4.8,0.,4.8,0.,4.8
1979-08-03 06:04:07.510 ,4,1,2.,4.8,0.,4.8,0.,4.8,0.,4.8
1979-08-03 06:04:12.310 ,4,1,1.,4.8,0.,4.8,0.,4.8,0.,4.8
1979-08-03 06:04:17.110 ,4,1,0.,4.8,0.,4.8,0.,4.8,0.,4.8
1979-08-03 06:04:21.910 ,7,1,0.,4.8,0.,4.8,0.,4.8,0.,4.8
1979-08-03 06:04:26.710 ,7,1,3.,4.8,0.,4.8,1.,4.8,0.,4.8
1979-08-03 06:04:31.510 ,7,1,2.,4.8,0.,4.8,0.,4.8,0.,4.8
1979-08-03 06:04:36.310 ,7,1,1.,4.8,0.,4.8,0.,4.8,0.,4.8
1979-08-03 06:04:41.110 ,7,1,1.,4.8,0.,4.8,0.,4.8,0.,4.8
1979-08-03 06:04:45.910 ,3,1,0.,4.8,0.,4.8,0.,4.8,0.,4.8
1979-08-03 06:04:50.710 ,3,1,4.,4.8,0.,4.8,0.,4.8,0.,4.8
1979-08-03 06:04:55.510 ,3,1,2.,4.8,0.,4.8,0.,4.8,0.,4.8
1979-08-03 06:05:00.310 ,3,1,1.,4.8,0.,4.8,0.,4.8,0.,4.8
1979-08-03 06:05:05.110 ,3,1,1.,4.8,0.,4.8,0.,4.8,0.,4.8
1979-08-03 06:05:09.910 ,0,1,2.,4.8,0.,4.8,0.,4.8,0.,4.8
1979-08-03 06:05:14.710 ,0,1,1.,4.8,0.,4.8,0.,4.8,0.,4.8
1979-08-03 06:05:19.510 ,0,1,0.,4.8,0.,4.8,0.,4.8,0.,4.8
1979-08-03 06:05:24.310 ,0,1,1.,4.8,0.,4.8,0.,4.8,0.,4.8
1979-08-03 06:05:29.110 ,0,1,2.,4.8,0.,4.8,0.,4.8,0.,4.8
1979-08-03 06:05:33.900 ,0,0,2.,4.8,0.,4.8,0.,4.8,0.,4.8
1979-08-03 06:05:38.700 ,0,0,1.,4.8,0.,4.8,0.,4.8,0.,4.8
1979-08-03 06:05:43.510 ,0,0,1.,4.8,0.,4.8,0.,4.8,0.,4.8
1979-08-03 06:05:48.300 ,0,0,0.,4.8,0.,4.8,0.,4.8,0.,4.8
1979-08-03 06:05:53.110 ,0,0,1.,4.8,0.,4.8,1.,4.8,0.,4.8
1979-08-03 06:05:57.900 ,0,0,2.,4.8,0.,4.8,0.,4.8,0.,4.8
1979-08-03 06:06:02.700 ,0,0,1.,4.8,0.,4.8,0.,4.8,0.,4.8
1979-08-03 06:06:07.510 ,0,0,4.,4.8,0.,4.8,0.,4.8,0.,4.8
1979-08-03 06:06:12.300 ,0,0,1.,4.8,0.,4.8,0.,4.8,0.,4.8
1979-08-03 06:06:17.110 ,0,0,0.,4.8,0.,4.8,1.,4.8,0.,4.8
1979-08-03 06:06:21.900 ,5,0,0.,4.8,0.,4.8,0.,4.8,0.,4.8
1979-08-03 06:06:26.700 ,5,0,2.,4.8,2.,4.8,0.,4.8,0.,4.8
1979-08-03 06:06:31.510 ,5,0,0.,4.8,0.,4.8,0.,4.8,0.,4.8
1979-08-03 06:06:36.300 ,5,0,0.,4.8,0.,4.8,0.,4.8,0.,4.8
1979-08-03 06:06:41.110 ,5,0,3.,4.8,0.,4.8,0.,4.8,0.,4.8
1979-08-03 06:06:45.900 ,5,0,1.,4.8,0.,4.8,0.,4.8,0.,4.8
1979-08-03 06:06:50.700 ,5,0,1.,4.8,0.,4.8,0.,4.8,0.,4.8
1979-08-03 06:06:55.510 ,5,0,4.,4.8,0.,4.8,0.,4.8,0.,4.8
1979-08-03 06:07:00.300 ,5,0,0.,4.8,0.,4.8,0.,4.8,0.,4.8
1979-08-03 06:07:05.110 ,5,0,2.,4.8,0.,4.8,0.,4.8,0.,4.8
1979-08-03 06:07:09.900 ,4,0,3.,4.8,0.,4.8,0.,4.8,0.,4.8
1979-08-03 06:07:14.700 ,4,0,1.,4.8,0.,4.8,0.,4.8,0.,4.8
1979-08-03 06:07:19.510 ,4,0,1.,4.8,0.,4.8,0.,4.8,0.,4.8
1979-08-03 06:07:24.300 ,4,0,1.,4.8,0.,4.8,0.,4.8,0.,4.8
1979-08-03 06:07:29.110 ,4,0,0.,4.8,0.,4.8,0.,4.8,0.,4.8
1979-08-03 06:07:33.900 ,4,0,1.,4.8,0.,4.8,0.,4.8,0.,4.8
1979-08-03 06:07:38.700 ,4,0,0.,4.8,0.,4.8,0.,4.8,0.,4.8
1979-08-03 06:07:43.510 ,4,0,2.,4.8,0.,4.8,0.,4.8,0.,4.8
1979-08-03 06:07:48.300 ,4,0,2.,4.8,0.,4.8,0.,4.8,0.,4.8
1979-08-03 06:07:53.110 ,4,0,3.,4.8,0.,4.8,0.,4.8,0.,4.8
1979-08-03 06:07:57.900 ,3,0,1.,4.8,0.,4.8,0.,4.8,0.,4.8
1979-08-03 06:08:02.700 ,3,0,5.,4.8,0.,4.8,0.,4.8,1.,4.8
1979-08-03 06:08:07.510 ,3,0,0.,4.8,0.,4.8,0.,4.8,0.,4.8
1979-08-03 06:08:12.300 ,3,0,3.,4.8,0.,4.8,0.,4.8,0.,4.8
1979-08-03 06:08:17.110 ,3,0,3.,4.8,0.,4.8,0.,4.8,0.,4.8
1979-08-03 06:08:21.900 ,3,0,1.,4.8,0.,4.8,0.,4.8,0.,4.8
1979-08-03 06:08:26.700 ,3,0,2.,4.8,0.,4.8,0.,4.8,0.,4.8
1979-08-03 06:08:31.510 ,3,0,1.,4.8,0.,4.8,0.,4.8,0.,4.8
1979-08-03 06:08:36.300 ,3,0,1.,4.8,0.,4.8,0.,4.8,0.,4.8
1979-08-03 06:08:41.100 ,3,0,2.,4.8,0.,4.8,0.,4.8,0.,4.8
1979-08-03 06:08:45.900 ,2,0,1.,4.8,0.,4.8,0.,4.8,0.,4.8
1979-08-03 06:08:50.710 ,2,0,2.,4.8,1.,4.8,0.,4.8,0.,4.8
1979-08-03 06:08:55.510 ,2,0,2.,4.8,0.,4.8,0.,4.8,0.,4.8
1979-08-03 06:09:00.300 ,2,0,1.,4.8,0.,4.8,1.,4.8,0.,4.8
1979-08-03 06:09:05.100 ,2,0,3.,4.8,0.,4.8,0.,4.8,0.,4.8
1979-08-03 06:09:09.900 ,2,0,3.,4.8,0.,4.8,0.,4.8,0.,4.8
1979-08-03 06:09:14.710 ,2,0,0.,4.8,0.,4.8,1.,4.8,0.,4.8
1979-08-03 06:09:19.510 ,2,0,0.,4.8,0.,4.8,0.,4.8,0.,4.8
1979-08-03 06:09:24.300 ,2,0,0.,4.8,0.,4.8,0.,4.8,0.,4.8
1979-08-03 06:09:29.100 ,2,0,3.,4.8,0.,4.8,0.,4.8,0.,4.8
1979-08-03 06:09:33.900 ,1,0,1.,4.8,0.,4.8,0.,4.8,0.,4.8
1979-08-03 06:09:38.710 ,1,0,4.,4.8,0.,4.8,0.,4.8,0.,4.8
1979-08-03 06:09:43.510 ,1,0,2.,4.8,0.,4.8,0.,4.8,0.,4.8
1979-08-03 06:09:48.300 ,1,0,1.,4.8,0.,4.8,0.,4.8,0.,4.8
1979-08-03 06:09:53.100 ,1,0,0.,4.8,0.,4.8,0.,4.8,0.,4.8
1979-08-03 06:09:57.900 ,1,0,2.,4.8,0.,4.8,0.,4.8,0.,4.8
1979-08-03 06:10:02.710 ,1,0,1.,4.8,1.,4.8,0.,4.8,0.,4.8
1979-08-03 06:10:07.510 ,1,0,0.,4.8,0.,4.8,0.,4.8,0.,4.8
1979-08-03 06:10:12.300 ,1,0,3.,4.8,0.,4.8,0.,4.8,0.,4.8
1979-08-03 06:10:17.100 ,1,0,1.,4.8,0.,4.8,0.,4.8,0.,4.8
1979-08-03 06:10:21.900 ,0,0,2.,4.8,0.,4.8,0.,4.8,0.,4.8
1979-08-03 06:10:26.710 ,0,0,1.,4.8,0.,4.8,0.,4.8,0.,4.8
1979-08-03 06:10:31.510 ,0,0,1.,4.8,0.,4.8,0.,4.8,0.,4.8
1979-08-03 06:10:36.300 ,0,0,3.,4.8,0.,4.8,0.,4.8,0.,4.8
1979-08-03 06:10:41.100 ,0,0,3.,4.8,0.,4.8,0.,4.8,0.,4.8
1979-08-03 06:10:45.900 ,0,0,3.,4.8,0.,4.8,0.,4.8,0.,4.8
1979-08-03 06:10:50.710 ,0,0,4.,4.8,0.,4.8,0.,4.8,0.,4.8
1979-08-03 06:10:55.510 ,0,0,2.,4.8,0.,4.8,1.,4.8,0.,4.8
1979-08-03 06:11:00.300 ,0,0,1.,4.8,0.,4.8,0.,4.8,0.,4.8
1979-08-03 06:11:05.100 ,0,0,0.,4.8,0.,4.8,0.,4.8,0.,4.8
1979-08-03 06:11:09.900 ,0,0,5.,4.8,0.,4.8,0.,4.8,0.,4.8
1979-08-03 06:11:14.710 ,0,0,3.,4.8,0.,4.8,0.,4.8,0.,4.8
1979-08-03 06:11:19.510 ,0,0,1.,4.8,0.,4.8,0.,4.8,0.,4.8
1979-08-03 06:11:24.300 ,0,0,0.,4.8,0.,4.8,0.,4.8,0.,4.8
1979-08-03 06:11:29.100 ,0,0,3.,4.8,0.,4.8,0.,4.8,0.,4.8
1979-08-03 06:11:33.900 ,0,0,2.,4.8,0.,4.8,0.,4.8,0.,4.8
1979-08-03 06:11:38.710 ,0,0,2.,4.8,0.,4.8,0.,4.8,0.,4.8
1979-08-03 06:11:43.510 ,0,0,3.,4.8,0.,4.8,0.,4.8,0.,4.8
1979-08-03 06:11:48.300 ,0,0,2.,4.8,0.,4.8,0.,4.8,0.,4.8
1979-08-03 06:11:53.100 ,0,0,6.,4.8,0.,4.8,1.,4.8,0.,4.8
1979-08-03 06:11:57.900 ,1,0,0.,4.8,0.,4.8,0.,4.8,0.,4.8
1979-08-03 06:12:02.710 ,1,0,6.,4.8,0.,4.8,0.,4.8,0.,4.8
1979-08-03 06:12:07.510 ,1,0,2.,4.8,0.,4.8,0.,4.8,0.,4.8
1979-08-03 06:12:12.300 ,1,0,3.,4.8,0.,4.8,0.,4.8,0.,4.8
1979-08-03 06:12:17.100 ,1,0,7.,4.8,0.,4.8,0.,4.8,0.,4.8
1979-08-03 06:12:21.900 ,1,0,6.,4.8,0.,4.8,0.,4.8,0.,4.8
1979-08-03 06:12:26.710 ,1,0,1.,4.8,0.,4.8,0.,4.8,0.,4.8
1979-08-03 06:12:31.510 ,1,0,1.,4.8,0.,4.8,0.,4.8,0.,4.8
1979-08-03 06:12:36.300 ,1,0,3.,4.8,0.,4.8,0.,4.8,0.,4.8
1979-08-03 06:12:41.100 ,1,0,2.,4.8,0.,4.8,0.,4.8,0.,4.8
1979-08-03 06:12:45.900 ,2,0,1.,4.8,0.,4.8,0.,4.8,0.,4.8
1979-08-03 06:12:50.710 ,2,0,1.,4.8,0.,4.8,1.,4.8,0.,4.8
1979-08-03 06:12:55.510 ,2,0,2.,4.8,0.,4.8,0.,4.8,0.,4.8
1979-08-03 06:13:00.300 ,2,0,2.,4.8,0.,4.8,0.,4.8,0.,4.8
1979-08-03 06:13:05.100 ,2,0,1.,4.8,0.,4.8,0.,4.8,0.,4.8
1979-08-03 06:13:09.900 ,2,0,3.,4.8,0.,4.8,0.,4.8,0.,4.8
1979-08-03 06:13:14.710 ,2,0,0.,4.8,0.,4.8,0.,4.8,0.,4.8
1979-08-03 06:13:19.510 ,2,0,3.,4.8,0.,4.8,0.,4.8,0.,4.8
1979-08-03 06:13:24.300 ,2,0,2.,4.8,0.,4.8,0.,4.8,0.,4.8
1979-08-03 06:13:29.100 ,2,0,3.,4.8,0.,4.8,0.,4.8,0.,4.8
1979-08-03 06:13:33.900 ,3,0,3.,4.8,0.,4.8,0.,4.8,1.,4.8
1979-08-03 06:13:38.710 ,3,0,0.,4.8,0.,4.8,0.,4.8,0.,4.8
1979-08-03 06:13:43.510 ,3,0,2.,4.8,0.,4.8,0.,4.8,0.,4.8
1979-08-03 06:13:48.300 ,3,0,2.,4.8,0.,4.8,0.,4.8,0.,4.8
1979-08-03 06:13:53.100 ,3,0,4.,4.8,0.,4.8,0.,4.8,0.,4.8
1979-08-03 06:13:57.900 ,3,0,2.,4.8,0.,4.8,0.,4.8,0.,4.8
1979-08-03 06:14:02.710 ,3,0,2.,4.8,0.,4.8,0.,4.8,0.,4.8
1979-08-03 06:14:07.510 ,3,0,3.,4.8,0.,4.8,0.,4.8,0.,4.8
1979-08-03 06:14:12.300 ,3,0,0.,4.8,0.,4.8,0.,4.8,0.,4.8
1979-08-03 06:14:17.100 ,3,0,3.,4.8,0.,4.8,0.,4.8,0.,4.8
1979-08-03 06:13:57.860 ,3,0,2.,4.8,0.,4.8,0.,4.8,0.,4.8
1979-08-03 06:14:02.660 ,3,0,2.,4.8,0.,4.8,0.,4.8,0.,4.8
1979-08-03 06:14:07.460 ,3,0,3.,4.8,0.,4.8,0.,4.8,0.,4.8
1979-08-03 06:14:12.260 ,3,0,0.,4.8,0.,4.8,0.,4.8,0.,4.8
1979-08-03 06:14:17.060 ,3,0,3.,4.8,0.,4.8,0.,4.8,0.,4.8
1979-08-03 06:14:21.900 ,4,0,1.,4.8,0.,4.8,0.,4.8,0.,4.8
1979-08-03 06:14:26.710 ,4,0,2.,4.8,0.,4.8,0.,4.8,0.,4.8
1979-08-03 06:14:31.510 ,4,0,1.,4.8,0.,4.8,0.,4.8,0.,4.8
1979-08-03 06:14:36.300 ,4,0,4.,4.8,0.,4.8,0.,4.8,0.,4.8
1979-08-03 06:14:41.100 ,4,0,3.,4.8,0.,4.8,0.,4.8,0.,4.8
1979-08-03 06:14:45.900 ,4,0,2.,4.8,0.,4.8,0.,4.8,0.,4.8
1979-08-03 06:14:50.710 ,4,0,0.,4.8,0.,4.8,0.,4.8,0.,4.8
1979-08-03 06:14:55.510 ,4,0,2.,4.8,0.,4.8,0.,4.8,0.,4.8
1979-08-03 06:15:00.300 ,4,0,0.,4.8,0.,4.8,0.,4.8,0.,4.8
1979-08-03 06:15:05.100 ,4,0,2.,4.8,1.,4.8,0.,4.8,0.,4.8
1979-08-03 06:15:09.900 ,5,0,1.,4.8,0.,4.8,0.,4.8,0.,4.8
1979-08-03 06:15:14.710 ,5,0,2.,4.8,0.,4.8,0.,4.8,0.,4.8
1979-08-03 06:15:19.510 ,5,0,2.,4.8,0.,4.8,1.,4.8,0.,4.8
1979-08-03 06:15:24.300 ,5,0,2.,4.8,0.,4.8,0.,4.8,0.,4.8
1979-08-03 06:15:29.100 ,5,0,1.,4.8,0.,4.8,0.,4.8,0.,4.8
1979-08-03 06:15:33.900 ,5,0,1.,4.8,0.,4.8,0.,4.8,0.,4.8
1979-08-03 06:15:38.710 ,5,0,1.,4.8,0.,4.8,0.,4.8,0.,4.8
1979-08-03 06:15:43.510 ,5,0,3.,4.8,0.,4.8,1.,4.8,0.,4.8
1979-08-03 06:15:48.300 ,5,0,2.,4.8,0.,4.8,0.,4.8,0.,4.8
1979-08-03 06:15:53.100 ,5,0,5.,4.8,0.,4.8,0.,4.8,0.,4.8
1979-08-03 06:15:57.900 ,6,0,2.,4.8,0.,4.8,0.,4.8,0.,4.8
1979-08-03 06:16:02.710 ,6,0,3.,4.8,0.,4.8,0.,4.8,0.,4.8
1979-08-03 06:16:07.510 ,6,0,2.,4.8,0.,4.8,0.,4.8,0.,4.8
1979-08-03 06:16:12.300 ,6,0,0.,4.8,0.,4.8,1.,4.8,0.,4.8
1979-08-03 06:16:17.100 ,6,0,3.,4.8,0.,4.8,0.,4.8,0.,4.8
1979-08-03 06:16:21.900 ,6,0,0.,4.8,0.,4.8,0.,4.8,0.,4.8
1979-08-03 06:16:26.710 ,6,0,2.,4.8,0.,4.8,0.,4.8,0.,4.8
1979-08-03 06:16:31.510 ,6,0,1.,4.8,0.,4.8,0.,4.8,0.,4.8
1979-08-03 06:16:36.300 ,6,0,0.,4.8,0.,4.8,0.,4.8,0.,4.8
1979-08-03 06:16:41.100 ,6,0,2.,4.8,0.,4.8,0.,4.8,0.,4.8
1979-08-03 06:16:45.900 ,7,0,2.,4.8,0.,4.8,0.,4.8,0.,4.8
1979-08-03 06:16:50.710 ,7,0,3.,4.8,0.,4.8,0.,4.8,0.,4.8
1979-08-03 06:16:55.510 ,7,0,0.,4.8,0.,4.8,0.,4.8,0.,4.8
1979-08-03 06:17:00.300 ,7,0,2.,4.8,0.,4.8,0.,4.8,0.,4.8
1979-08-03 06:17:05.100 ,7,0,0.,4.8,0.,4.8,0.,4.8,0.,4.8
1979-08-03 06:17:09.910 ,7,0,2.,4.8,0.,4.8,0.,4.8,0.,4.8
1979-08-03 06:17:14.710 ,7,0,0.,4.8,0.,4.8,0.,4.8,0.,4.8
1979-08-03 06:17:19.510 ,7,0,2.,4.8,0.,4.8,1.,4.8,0.,4.8
1979-08-03 06:17:24.310 ,7,0,1.,4.8,0.,4.8,0.,4.8,0.,4.8
1979-08-03 06:17:29.110 ,7,0,3.,4.8,0.,4.8,0.,4.8,0.,4.8
1979-08-03 06:17:33.910 ,7,0,3.,4.8,0.,4.8,0.,4.8,0.,4.8
1979-08-03 06:17:38.710 ,7,0,1.,4.8,0.,4.8,0.,4.8,0.,4.8
1979-08-03 06:17:43.510 ,7,0,0.,4.8,0.,4.8,0.,4.8,0.,4.8
1979-08-03 06:17:48.310 ,7,0,4.,4.8,0.,4.8,0.,4.8,0.,4.8
1979-08-03 06:17:53.110 ,7,0,2.,4.8,0.,4.8,0.,4.8,0.,4.8
1979-08-03 06:17:57.910 ,7,0,1.,4.8,0.,4.8,1.,4.8,0.,4.8
1979-08-03 06:18:02.710 ,7,0,0.,4.8,0.,4.8,0.,4.8,0.,4.8
1979-08-03 06:18:07.510 ,7,0,0.,4.8,0.,4.8,0.,4.8,0.,4.8
1979-08-03 06:18:12.310 ,7,0,1.,4.8,0.,4.8,0.,4.8,0.,4.8
1979-08-03 06:18:17.110 ,7,0,2.,4.8,0.,4.8,0.,4.8,0.,4.8
1979-08-03 06:18:21.910 ,6,0,3.,4.8,0.,4.8,0.,4.8,0.,4.8
1979-08-03 06:18:26.710 ,6,0,3.,4.8,0.,4.8,0.,4.8,0.,4.8
1979-08-03 06:18:31.510 ,6,0,0.,4.8,0.,4.8,0.,4.8,0.,4.8
1979-08-03 06:18:36.310 ,6,0,2.,4.8,0.,4.8,0.,4.8,0.,4.8
1979-08-03 06:18:41.110 ,6,0,3.,4.8,1.,4.8,0.,4.8,0.,4.8
1979-08-03 06:18:45.910 ,6,0,0.,4.8,0.,4.8,0.,4.8,0.,4.8
1979-08-03 06:18:50.710 ,6,0,1.,4.8,0.,4.8,0.,4.8,0.,4.8
1979-08-03 06:18:55.510 ,6,0,2.,4.8,0.,4.8,0.,4.8,0.,4.8
1979-08-03 06:19:00.310 ,6,0,1.,4.8,0.,4.8,0.,4.8,0.,4.8
1979-08-03 06:19:05.110 ,6,0,1.,4.8,0.,4.8,0.,4.8,0.,4.8
1979-08-03 06:19:09.910 ,5,0,4.,4.8,0.,4.8,1.,4.8,0.,4.8
1979-08-03 06:19:14.710 ,5,0,2.,4.8,0.,4.8,1.,4.8,0.,4.8
1979-08-03 06:19:19.510 ,5,0,7.,4.8,0.,4.8,1.,4.8,0.,4.8
1979-08-03 06:19:24.310 ,5,0,4.,4.8,0.,4.8,0.,4.8,0.,4.8
1979-08-03 06:19:29.110 ,5,0,3.,4.8,0.,4.8,0.,4.8,0.,4.8
1979-08-03 06:19:33.910 ,5,0,2.,4.8,0.,4.8,0.,4.8,0.,4.8
1979-08-03 06:19:38.710 ,5,0,1.,4.8,0.,4.8,0.,4.8,0.,4.8
1979-08-03 06:19:43.510 ,5,0,5.,4.8,0.,4.8,0.,4.8,0.,4.8
1979-08-03 06:19:48.310 ,5,0,2.,4.8,1.,4.8,0.,4.8,0.,4.8
1979-08-03 06:19:53.110 ,5,0,1.,4.8,0.,4.8,1.,4.8,0.,4.8
1979-08-03 06:19:57.910 ,4,0,2.,4.8,0.,4.8,0.,4.8,0.,4.8
1979-08-03 06:20:02.710 ,4,0,1.,4.8,0.,4.8,0.,4.8,0.,4.8
1979-08-03 06:20:07.510 ,4,0,2.,4.8,0.,4.8,2.,4.8,0.,4.8
1979-08-03 06:20:12.310 ,4,0,1.,4.8,0.,4.8,0.,4.8,0.,4.8
1979-08-03 06:20:17.110 ,4,0,3.,4.8,0.,4.8,0.,4.8,0.,4.8
1979-08-03 06:20:21.910 ,4,0,2.,4.8,0.,4.8,0.,4.8,0.,4.8
1979-08-03 06:20:26.710 ,4,0,3.,4.8,0.,4.8,0.,4.8,0.,4.8
1979-08-03 06:20:31.510 ,4,0,2.,4.8,0.,4.8,1.,4.8,0.,4.8
1979-08-03 06:20:36.310 ,4,0,0.,4.8,0.,4.8,0.,4.8,0.,4.8
1979-08-03 06:20:41.110 ,4,0,2.,4.8,0.,4.8,0.,4.8,0.,4.8
1979-08-03 06:20:45.860 ,3,0,3.,4.8,0.,4.8,0.,4.8,0.,4.8
1979-08-03 06:20:50.660 ,3,0,0.,4.8,0.,4.8,0.,4.8,0.,4.8
1979-08-03 06:20:55.460 ,3,0,2.,4.8,0.,4.8,0.,4.8,0.,4.8
1979-08-03 06:21:00.260 ,3,0,3.,4.8,0.,4.8,0.,4.8,0.,4.8
1979-08-03 06:21:05.060 ,3,0,4.,4.8,0.,4.8,0.,4.8,0.,4.8
1979-08-03 06:21:09.860 ,3,0,2.,4.8,0.,4.8,0.,4.8,0.,4.8
1979-08-03 06:21:14.660 ,3,0,1.,4.8,1.,4.8,0.,4.8,0.,4.8
1979-08-03 06:21:19.460 ,3,0,1.,4.8,0.,4.8,0.,4.8,0.,4.8
1979-08-03 06:21:24.260 ,3,0,5.,4.8,0.,4.8,0.,4.8,0.,4.8
1979-08-03 06:21:29.060 ,3,0,3.,4.8,0.,4.8,1.,4.8,0.,4.8
1979-08-03 06:21:33.910 ,2,0,1.,4.8,0.,4.8,0.,4.8,0.,4.8
1979-08-03 06:21:38.710 ,2,0,1.,4.8,0.,4.8,0.,4.8,0.,4.8
1979-08-03 06:21:43.510 ,2,0,1.,4.8,0.,4.8,0.,4.8,0.,4.8
1979-08-03 06:21:48.310 ,2,0,3.,4.8,0.,4.8,0.,4.8,0.,4.8
1979-08-03 06:21:53.110 ,2,0,4.,4.8,0.,4.8,0.,4.8,0.,4.8
1979-08-03 06:21:57.910 ,2,0,1.,4.8,0.,4.8,0.,4.8,0.,4.8
1979-08-03 06:22:02.710 ,2,0,1.,4.8,0.,4.8,0.,4.8,0.,4.8
1979-08-03 06:22:07.510 ,2,0,5.,4.8,0.,4.8,0.,4.8,0.,4.8
1979-08-03 06:22:12.310 ,2,0,5.,4.8,0.,4.8,0.,4.8,0.,4.8
1979-08-03 06:22:17.110 ,2,0,3.,4.8,0.,4.8,1.,4.8,0.,4.8
1979-08-03 06:22:21.910 ,1,0,4.,4.8,0.,4.8,0.,4.8,0.,4.8
1979-08-03 06:22:26.710 ,1,0,1.,4.8,0.,4.8,0.,4.8,0.,4.8
1979-08-03 06:22:31.510 ,1,0,3.,4.8,0.,4.8,0.,4.8,0.,4.8
1979-08-03 06:22:36.310 ,1,0,7.,4.8,0.,4.8,0.,4.8,0.,4.8
1979-08-03 06:22:41.110 ,1,0,4.,4.8,0.,4.8,0.,4.8,0.,4.8
1979-08-03 06:22:45.910 ,1,0,5.,4.8,0.,4.8,1.,4.8,0.,4.8
1979-08-03 06:22:50.710 ,1,0,4.,4.8,0.,4.8,0.,4.8,0.,4.8
1979-08-03 06:22:55.510 ,1,0,3.,4.8,0.,4.8,0.,4.8,0.,4.8
1979-08-03 06:23:00.310 ,1,0,2.,4.8,0.,4.8,0.,4.8,0.,4.8
1979-08-03 06:23:05.110 ,1,0,3.,4.8,0.,4.8,0.,4.8,0.,4.8
1979-08-03 06:23:09.910 ,0,0,4.,4.8,0.,4.8,0.,4.8,0.,4.8
1979-08-03 06:23:14.710 ,0,0,5.,4.8,0.,4.8,0.,4.8,0.,4.8
1979-08-03 06:23:19.510 ,0,0,2.,4.8,0.,4.8,0.,4.8,0.,4.8
1979-08-03 06:23:24.310 ,0,0,1.,4.8,0.,4.8,0.,4.8,0.,4.8
1979-08-03 06:23:29.110 ,0,0,7.,4.8,0.,4.8,1.,4.8,0.,4.8
1979-08-03 06:23:33.910 ,0,0,4.,4.8,0.,4.8,0.,4.8,0.,4.8
1979-08-03 06:23:38.710 ,0,0,5.,4.8,0.,4.8,0.,4.8,0.,4.8
1979-08-03 06:23:43.510 ,0,0,4.,4.8,0.,4.8,0.,4.8,0.,4.8
1979-08-03 06:23:48.310 ,0,0,1.,4.8,0.,4.8,0.,4.8,0.,4.8
1979-08-03 06:23:53.110 ,0,0,2.,4.8,0.,4.8,0.,4.8,0.,4.8
1979-08-03 06:23:57.910 ,0,0,2.,4.8,0.,4.8,0.,4.8,0.,4.8
1979-08-03 06:24:02.710 ,0,0,5.,4.8,0.,4.8,2.,4.8,0.,4.8
1979-08-03 06:24:07.510 ,0,0,1.,4.8,0.,4.8,0.,4.8,0.,4.8
1979-08-03 06:24:12.310 ,0,0,0.,4.8,0.,4.8,0.,4.8,0.,4.8
1979-08-03 06:24:17.110 ,0,0,2.,4.8,0.,4.8,0.,4.8,0.,4.8
1979-08-03 06:24:21.910 ,0,0,4.,4.8,0.,4.8,0.,4.8,0.,4.8
1979-08-03 06:24:26.710 ,0,0,3.,4.8,0.,4.8,0.,4.8,0.,4.8
1979-08-03 06:24:31.510 ,0,0,1.,4.8,0.,4.8,0.,4.8,0.,4.8
1979-08-03 06:24:36.310 ,0,0,4.,4.8,0.,4.8,0.,4.8,0.,4.8
1979-08-03 06:24:41.110 ,0,0,1.,4.8,0.,4.8,0.,4.8,0.,4.8
1979-08-03 06:24:45.900 ,1,0,1.,4.8,0.,4.8,0.,4.8,0.,4.8
1979-08-03 06:24:50.700 ,1,0,3.,4.8,0.,4.8,0.,4.8,0.,4.8
1979-08-03 06:24:55.500 ,1,0,2.,4.8,0.,4.8,0.,4.8,0.,4.8
1979-08-03 06:25:00.300 ,1,0,0.,4.8,0.,4.8,0.,4.8,0.,4.8
1979-08-03 06:25:05.100 ,1,0,3.,4.8,0.,4.8,0.,4.8,0.,4.8
1979-08-03 06:25:09.900 ,1,0,2.,4.8,0.,4.8,0.,4.8,0.,4.8
1979-08-03 06:25:14.700 ,1,0,3.,4.8,0.,4.8,1.,4.8,0.,4.8
1979-08-03 06:25:19.500 ,1,0,5.,4.8,0.,4.8,0.,4.8,0.,4.8
1979-08-03 06:25:24.300 ,1,0,5.,4.8,0.,4.8,0.,4.8,0.,4.8
1979-08-03 06:25:29.100 ,1,0,2.,4.8,0.,4.8,0.,4.8,0.,4.8
1979-08-03 06:25:33.900 ,2,0,0.,4.8,0.,4.8,0.,4.8,0.,4.8
1979-08-03 06:25:38.700 ,2,0,4.,4.8,0.,4.8,0.,4.8,0.,4.8
1979-08-03 06:25:43.500 ,2,0,5.,4.8,0.,4.8,0.,4.8,0.,4.8
1979-08-03 06:25:48.300 ,2,0,1.,4.8,0.,4.8,0.,4.8,0.,4.8
1979-08-03 06:25:53.100 ,2,0,5.,4.8,0.,4.8,0.,4.8,0.,4.8
1979-08-03 06:25:57.860 ,2,0,5.,4.8,0.,4.8,0.,4.8,0.,4.8
1979-08-03 06:26:02.660 ,2,0,2.,4.8,0.,4.8,0.,4.8,0.,4.8
1979-08-03 06:26:07.460 ,2,0,5.,4.8,0.,4.8,0.,4.8,0.,4.8
1979-08-03 06:26:12.260 ,2,0,6.,4.8,0.,4.8,0.,4.8,0.,4.8
1979-08-03 06:26:17.060 ,2,0,5.,4.8,0.,4.8,0.,4.8,0.,4.8
1979-08-03 06:26:21.900 ,3,0,2.,4.8,0.,4.8,0.,4.8,0.,4.8
1979-08-03 06:26:26.700 ,3,0,4.,4.8,0.,4.8,0.,4.8,0.,4.8
1979-08-03 06:26:31.500 ,3,0,6.,4.8,0.,4.8,0.,4.8,0.,4.8
1979-08-03 06:26:36.300 ,3,0,2.,4.8,0.,4.8,0.,4.8,0.,4.8
1979-08-03 06:26:41.100 ,3,0,2.,4.8,0.,4.8,0.,4.8,0.,4.8
1979-08-03 06:26:45.900 ,3,0,5.,4.8,0.,4.8,0.,4.8,0.,4.8
1979-08-03 06:26:50.700 ,3,0,5.,4.8,0.,4.8,1.,4.8,0.,4.8
1979-08-03 06:26:55.500 ,3,0,1.,4.8,0.,4.8,0.,4.8,0.,4.8
1979-08-03 06:27:00.300 ,3,0,1.,4.8,0.,4.8,0.,4.8,0.,4.8
1979-08-03 06:27:05.100 ,3,0,2.,4.8,0.,4.8,0.,4.8,0.,4.8
1979-08-03 06:27:09.900 ,4,0,1.,4.8,0.,4.8,0.,4.8,0.,4.8
1979-08-03 06:27:14.700 ,4,0,3.,4.8,0.,4.8,0.,4.8,0.,4.8
1979-08-03 06:27:19.500 ,4,0,2.,4.8,0.,4.8,1.,4.8,0.,4.8
1979-08-03 06:27:24.300 ,4,0,4.,4.8,0.,4.8,0.,4.8,0.,4.8
1979-08-03 06:27:29.100 ,4,0,2.,4.8,0.,4.8,0.,4.8,0.,4.8
1979-08-03 06:27:33.900 ,4,0,2.,4.8,0.,4.8,0.,4.8,0.,4.8
1979-08-03 06:27:38.700 ,4,0,2.,4.8,0.,4.8,0.,4.8,0.,4.8
1979-08-03 06:27:43.500 ,4,0,4.,4.8,1.,4.8,0.,4.8,0.,4.8
1979-08-03 06:27:48.300 ,4,0,3.,4.8,0.,4.8,0.,4.8,0.,4.8
1979-08-03 06:27:53.100 ,4,0,7.,4.8,0.,4.8,0.,4.8,0.,4.8
1979-08-03 06:27:57.900 ,5,0,0.,4.8,0.,4.8,0.,4.8,0.,4.8
1979-08-03 06:28:02.700 ,5,0,4.,4.8,0.,4.8,0.,4.8,1.,4.8
1979-08-03 06:28:07.500 ,5,0,4.,4.8,0.,4.8,0.,4.8,0.,4.8
1979-08-03 06:28:12.300 ,5,0,4.,4.8,0.,4.8,0.,4.8,0.,4.8
1979-08-03 06:28:17.100 ,5,0,13.,4.8,0.,4.8,0.,4.8,0.,4.8
1979-08-03 06:28:21.900 ,5,0,6.,4.8,0.,4.8,0.,4.8,0.,4.8
1979-08-03 06:28:26.700 ,5,0,4.,4.8,0.,4.8,0.,4.8,0.,4.8
1979-08-03 06:28:31.500 ,5,0,6.,4.8,0.,4.8,0.,4.8,0.,4.8
1979-08-03 06:28:36.300 ,5,0,3.,4.8,0.,4.8,0.,4.8,0.,4.8
1979-08-03 06:28:41.100 ,5,0,2.,4.8,0.,4.8,0.,4.8,0.,4.8
1979-08-03 06:28:45.900 ,6,0,2.,4.8,0.,4.8,0.,4.8,0.,4.8
1979-08-03 06:28:50.700 ,6,0,4.,4.8,0.,4.8,0.,4.8,0.,4.8
1979-08-03 06:28:55.500 ,6,0,3.,4.8,0.,4.8,0.,4.8,0.,4.8
1979-08-03 06:29:00.300 ,6,0,4.,4.8,0.,4.8,0.,4.8,0.,4.8
1979-08-03 06:29:05.100 ,6,0,5.,4.8,0.,4.8,0.,4.8,0.,4.8
1979-08-03 06:29:09.900 ,6,0,3.,4.8,0.,4.8,0.,4.8,0.,4.8
1979-08-03 06:29:14.700 ,6,0,3.,4.8,0.,4.8,0.,4.8,0.,4.8
1979-08-03 06:29:19.500 ,6,0,3.,4.8,0.,4.8,0.,4.8,0.,4.8
1979-08-03 06:29:24.300 ,6,0,4.,4.8,0.,4.8,0.,4.8,0.,4.8
1979-08-03 06:29:29.100 ,6,0,4.,4.8,0.,4.8,0.,4.8,0.,4.8
1979-08-03 06:29:33.900 ,7,0,8.,4.8,0.,4.8,0.,4.8,0.,4.8
1979-08-03 06:29:38.700 ,7,0,3.,4.8,0.,4.8,1.,4.8,0.,4.8
1979-08-03 06:29:43.500 ,7,0,2.,4.8,1.,4.8,0.,4.8,0.,4.8
1979-08-03 06:29:48.300 ,7,0,0.,4.8,0.,4.8,0.,4.8,0.,4.8
1979-08-03 06:29:53.100 ,7,0,2.,4.8,0.,4.8,1.,4.8,0.,4.8
1979-08-03 06:29:57.900 ,7,0,1.,4.8,0.,4.8,0.,4.8,0.,4.8
1979-08-03 06:30:02.700 ,7,0,3.,4.8,0.,4.8,0.,4.8,0.,4.8
1979-08-03 06:30:07.500 ,7,0,2.,4.8,0.,4.8,0.,4.8,0.,4.8
1979-08-03 06:30:12.300 ,7,0,2.,4.8,0.,4.8,0.,4.8,0.,4.8
1979-08-03 06:30:17.100 ,7,0,0.,4.8,0.,4.8,0.,4.8,0.,4.8
1979-08-03 06:30:21.900 ,7,0,2.,4.8,0.,4.8,0.,4.8,0.,4.8
1979-08-03 06:30:26.700 ,7,0,2.,4.8,0.,4.8,0.,4.8,0.,4.8
1979-08-03 06:30:31.500 ,7,0,2.,4.8,1.,4.8,0.,4.8,0.,4.8
1979-08-03 06:30:36.300 ,7,0,3.,4.8,0.,4.8,0.,4.8,0.,4.8
1979-08-03 06:30:41.100 ,7,0,0.,4.8,0.,4.8,0.,4.8,0.,4.8
1979-08-03 06:30:45.900 ,7,0,1.,4.8,0.,4.8,0.,4.8,0.,4.8
1979-08-03 06:30:50.700 ,7,0,1.,4.8,0.,4.8,0.,4.8,0.,4.8
1979-08-03 06:30:55.500 ,7,0,2.,4.8,0.,4.8,0.,4.8,0.,4.8
1979-08-03 06:31:00.300 ,7,0,0.,4.8,0.,4.8,0.,4.8,0.,4.8
1979-08-03 06:31:05.100 ,7,0,0.,4.8,0.,4.8,0.,4.8,0.,4.8
1979-08-03 06:31:09.900 ,6,0,0.,4.8,0.,4.8,0.,4.8,0.,4.8
1979-08-03 06:31:14.700 ,6,0,2.,4.8,0.,4.8,0.,4.8,0.,4.8
1979-08-03 06:31:19.500 ,6,0,0.,4.8,0.,4.8,0.,4.8,0.,4.8
1979-08-03 06:31:24.300 ,6,0,3.,4.8,0.,4.8,0.,4.8,0.,4.8
1979-08-03 06:31:29.100 ,6,0,3.,4.8,0.,4.8,0.,4.8,0.,4.8
1979-08-03 06:31:33.900 ,6,0,5.,4.8,0.,4.8,1.,4.8,0.,4.8
1979-08-03 06:31:38.700 ,6,0,6.,4.8,0.,4.8,0.,4.8,0.,4.8
1979-08-03 06:31:43.500 ,6,0,2.,4.8,0.,4.8,0.,4.8,0.,4.8
1979-08-03 06:31:48.300 ,6,0,1.,4.8,0.,4.8,0.,4.8,0.,4.8
1979-08-03 06:31:53.100 ,6,0,4.,4.8,0.,4.8,1.,4.8,0.,4.8
1979-08-03 06:31:57.900 ,5,0,3.,4.8,0.,4.8,1.,4.8,0.,4.8
1979-08-03 06:32:02.700 ,5,0,4.,4.8,0.,4.8,0.,4.8,0.,4.8
1979-08-03 06:32:07.500 ,5,0,1.,4.8,0.,4.8,0.,4.8,0.,4.8
1979-08-03 06:32:12.300 ,5,0,4.,4.8,0.,4.8,0.,4.8,0.,4.8
1979-08-03 06:32:17.100 ,5,0,4.,4.8,0.,4.8,0.,4.8,0.,4.8
1979-08-03 06:32:21.900 ,5,0,3.,4.8,0.,4.8,0.,4.8,0.,4.8
1979-08-03 06:32:26.700 ,5,0,2.,4.8,0.,4.8,1.,4.8,0.,4.8
1979-08-03 06:32:31.500 ,5,0,3.,4.8,0.,4.8,0.,4.8,0.,4.8
1979-08-03 06:32:36.300 ,5,0,9.,4.8,0.,4.8,0.,4.8,0.,4.8
1979-08-03 06:32:41.100 ,5,0,5.,4.8,0.,4.8,1.,4.8,0.,4.8
1979-08-03 06:32:45.900 ,4,0,2.,4.8,0.,4.8,1.,4.8,0.,4.8
1979-08-03 06:32:50.700 ,4,0,1.,4.8,0.,4.8,0.,4.8,0.,4.8
1979-08-03 06:32:55.500 ,4,0,3.,4.8,0.,4.8,0.,4.8,0.,4.8